Location: Hermaringen
(48.5952°N, 10.2585°E)
Time: 20:05:05
(UTC+00:00)

S-56A Canister/Altair - Pass Details

Date: 23 February 2026
Orbit: 633 x 2484 km, 38.9° (Epoch: 13 March)

Event Time Altitude Azimuth Distance (km) Brightness Sun altitude
Exits shadow 04:06:09 12° 212° (SSW) 3,766 10.7 -21.6°
Drops below altitude 10° 04:09:34 10° 194° (SSW) 4,205 11.0 -21.0°
Sets 04:16:36 0° 170° (S) 5,640 12.0 -19.9°
